Location: Chiroubles
(46.1812°N, 4.6660°E)
Time: 23:01:35
(UTC+00:00)

A-11 Canister half - All Passes

Search period start: 25 November 2020 00:00
Search period end: 05 December 2020 00:00
Orbit: 1525 x 1683 km, 47.3° (Epoch: 25 November)

Date Brightness Start Highest point End Pass type
(mag) Time Alt. Az. Time Alt. Az. Time Alt. Az.
25 Nov - 04:14:53 10° SSE 04:21:05 18° SE 04:27:13 10° E visible
25 Nov - 06:14:49 10° SW 06:24:31 54° SE 06:34:01 10° ENE visible
25 Nov - 08:19:12 10° WSW 08:29:20 90° NNW 08:39:09 10° E daylight
25 Nov - 10:24:45 10° W 10:34:46 89° NNE 10:44:25 10° ESE daylight
25 Nov - 12:30:07 10° WNW 12:39:29 53° SW 12:48:32 10° SE daylight
25 Nov - 14:37:07 10° W 14:42:43 17° SW 14:48:14 10° SSW daylight
26 Nov - 03:53:39 10° SSE 03:59:30 17° SE 04:05:18 10° E visible
26 Nov - 05:53:13 10° SW 06:02:53 52° SE 06:12:21 10° ENE visible
26 Nov - 07:57:30 10° WSW 08:07:39 89° S 08:17:30 10° ENE daylight
26 Nov - 10:03:02 10° W 10:13:05 88° NNE 10:22:45 10° ESE daylight
26 Nov - 12:08:25 10° WNW 12:17:52 55° SW 12:27:00 10° SE daylight
26 Nov - 14:15:12 10° W 14:21:10 19° SW 14:27:04 10° SSW daylight
27 Nov - 03:32:29 10° SSE 03:37:56 16° SE 03:43:20 10° E visible
27 Nov - 05:31:39 10° SW 05:41:14 50° SE 05:50:40 10° ENE visible
27 Nov - 07:35:48 10° WSW 07:45:58 88° SSE 07:55:51 10° ENE daylight
27 Nov - 09:41:20 10° W 09:51:24 88° N 10:01:07 10° E daylight
27 Nov - 11:46:42 10° WNW 11:56:15 57° SSW 12:05:27 10° SE daylight
27 Nov - 13:53:19 10° W 13:59:37 20° SW 14:05:50 10° SSW daylight
28 Nov - 03:11:23 10° SSE 03:16:22 15° ESE 03:21:20 10° E visible
28 Nov - 05:10:04 10° SSW 05:19:36 48° SE 05:28:59 10° ENE visible
28 Nov - 07:14:06 10° WSW 07:24:16 87° SSE 07:34:10 10° ENE daylight
28 Nov - 09:19:37 10° W 09:29:43 87° N 09:39:27 10° E daylight
28 Nov - 11:25:01 10° WNW 11:34:37 59° SSW 11:43:53 10° SE daylight
28 Nov - 13:31:27 10° W 13:38:05 21° SW 13:44:35 10° S daylight
29 Nov - 02:50:21 10° SSE 02:54:48 14° ESE 02:59:14 10° E visible
29 Nov - 04:48:30 10° SSW 04:57:58 46° SE 05:07:18 10° ENE visible
29 Nov - 06:52:24 10° WSW 07:02:36 86° SSE 07:12:31 10° ENE daylight
29 Nov - 08:57:54 10° W 09:08:02 86° N 09:17:48 10° E daylight
29 Nov - 11:03:18 10° WNW 11:12:59 61° SSW 11:22:19 10° SE daylight
29 Nov - 13:09:35 10° W 13:16:30 22° SW 13:23:18 10° S daylight
30 Nov - 02:29:25 10° SE 02:33:15 13° ESE 02:37:04 10° E visible
30 Nov - 04:26:58 10° SSW 04:36:20 44° SE 04:45:36 10° ENE visible
30 Nov - 06:30:43 10° WSW 06:40:54 85° SSE 06:50:51 10° ENE visible
30 Nov - 08:36:12 10° W 08:46:20 86° N 08:56:09 10° E daylight
30 Nov - 10:41:35 10° WNW 10:51:21 63° SSW 11:00:45 10° SE daylight
30 Nov - 12:47:46 10° W 12:54:57 24° SW 13:01:59 10° S daylight
01 Dec - 02:08:40 10° SE 02:11:41 12° ESE 02:14:43 10° ESE visible
01 Dec - 04:05:25 10° SSW 04:14:42 43° SE 04:23:54 10° ENE visible
01 Dec - 06:09:01 10° WSW 06:19:13 83° SSE 06:29:11 10° ENE visible
01 Dec - 08:14:29 10° W 08:24:39 85° N 08:34:28 10° E daylight
01 Dec - 10:19:54 10° WNW 10:29:43 65° SSW 10:39:10 10° SE daylight
01 Dec - 12:25:57 10° W 12:33:23 25° SW 12:40:39 10° S daylight
02 Dec - 01:48:18 10° SE 01:50:08 11° ESE 01:51:59 10° ESE visible
02 Dec - 03:43:53 10° SSW 03:53:05 41° SE 04:02:13 10° ENE visible
02 Dec - 05:47:20 10° WSW 05:57:32 82° SSE 06:07:31 10° ENE visible
02 Dec - 07:52:46 10° W 08:02:56 85° N 08:12:48 10° E daylight
02 Dec - 09:58:12 10° WNW 10:08:04 67° SSW 10:17:35 10° SE daylight
02 Dec - 12:04:09 10° W 12:11:49 27° SW 12:19:18 10° S daylight
03 Dec - 03:22:22 10° SSW 03:31:27 39° SE 03:40:30 10° ENE visible
03 Dec - 05:25:40 10° WSW 05:35:51 80° SSE 05:45:51 10° ENE visible
03 Dec - 07:31:04 10° W 07:41:15 84° N 07:51:09 10° E daylight
03 Dec - 09:36:30 10° WNW 09:46:25 69° SSW 09:55:59 10° SE daylight
03 Dec - 11:42:22 10° WNW 11:50:15 28° SW 11:57:56 10° S daylight
04 Dec - 03:00:51 10° SSW 03:09:50 38° SE 03:18:47 10° ENE visible
04 Dec - 05:03:59 10° WSW 05:14:09 79° SSE 05:24:11 10° ENE visible
04 Dec - 07:09:20 10° W 07:19:33 84° N 07:29:28 10° E daylight
04 Dec - 09:14:47 10° WNW 09:24:46 71° SSW 09:34:23 10° SE daylight
04 Dec - 11:20:34 10° WNW 11:28:40 30° SW 11:36:32 10° S daylight
